FW4844 Weather Reports


Display with metric or nautical units.
time (UTC)temp
F
wind
direction
speed
MPH
gust
MPH
rain 1hr
in
rain 24hr
in
rain mn
in
humidity
%
barometer
mb
20260509093409 28 347 1.0 2.0 0.00 0.00 0.00 89 1009.3
20260509092909 28 347 1.0 2.0 0.00 0.00 0.00 88 1009.4
20260509092410 28 347 0.0 2.0 0.00 0.00 0.00 88 1009.4
20260509091908 28 347 0.0 1.0 0.00 0.00 0.00 88 1009.3
20260509091408 28 347 1.0 1.0 0.00 0.00 0.00 87 1009.3
20260509090906 28 347 1.0 1.0 0.00 0.00 0.00 87 1009.3
20260509090404 29 347 1.0 2.0 0.00 0.00 0.00 86 1009.3
20260509085902 29 347 1.0 2.0 0.00 0.00 0.00 86 1009.2
20260509085401 29 347 0.0 1.0 0.00 0.00 0.00 85 1009.2
20260509084853 29 347 0.0 1.0 0.00 0.00 0.00 84 1009.3
20260509084347 30 347 0.0 4.0 0.00 0.00 0.00 83 1009.2
20260509083844 31 347 1.0 4.0 0.00 0.00 0.00 82 1009.2
20260509083342 31 347 2.0 5.0 0.00 0.00 0.00 81 1009.2
20260509083101 32 347 2.0 5.0 0.00 0.00 0.00 80 1009.2
20260509082605 32 338 3.0 5.0 0.00 0.00 0.00 80 1009.1
20260509081841 31 0 2.0 5.0 0.00 0.00 0.00 82 1009.2
20260509081338 31 343 2.0 3.0 0.00 0.00 0.00 82 1009.2
20260509080837 31 343 2.0 3.0 0.00 0.00 0.00 82 1009.2
20260509080336 31 343 2.0 5.0 0.00 0.00 0.00 81 1009.2
20260509075836 31 343 2.0 5.0 0.00 0.00 0.00 80 1009.2
20260509075336 32 347 2.0 3.0 0.00 0.00 0.00 80 1009.2
20260509074836 32 346 2.0 4.0 0.00 0.00 0.00 80 1009.2
20260509074335 32 348 2.0 4.0 0.00 0.00 0.00 80 1009.2
20260509073833 31 338 3.0 4.0 0.00 0.00 0.00 80 1009.3
20260509073329 31 333 3.0 4.0 0.00 0.00 0.00 81 1009.3
20260509072830 31 329 2.0 4.0 0.00 0.00 0.00 81 1009.3
20260509072330 31 329 3.0 5.0 0.00 0.00 0.00 81 1009.3
20260509071825 31 317 2.0 5.0 0.00 0.00 0.00 81 1009.3
20260509071326 31 280 2.0 4.0 0.00 0.00 0.00 82 1009.5
20260509070826 31 279 2.0 3.0 0.00 0.00 0.00 82 1009.4
20260509070324 31 257 2.0 3.0 0.00 0.00 0.00 82 1009.5
20260509065824 30 257 2.0 3.0 0.00 0.00 0.00 82 1009.5
20260509065329 30 257 2.0 3.0 0.00 0.00 0.00 82 1009.5
20260509064824 30 257 1.0 2.0 0.00 0.00 0.00 81 1009.5
20260509064324 30 257 1.0 2.0 0.00 0.00 0.00 81 1009.5
20260509063824 30 257 1.0 2.0 0.00 0.00 0.00 82 1009.5
20260509063324 30 257 1.0 2.0 0.00 0.00 0.00 81 1009.6
20260509062822 30 257 1.0 2.0 0.00 0.00 0.00 81 1009.7
20260509062322 30 257 1.0 2.0 0.00 0.00 0.00 81 1009.7
20260509061822 31 257 1.0 2.0 0.00 0.00 0.00 81 1009.8
20260509061323 31 257 1.0 3.0 0.00 0.00 0.00 80 1009.7
20260509060546 31 257 1.0 3.0 0.00 0.00 0.00 79 1009.7
20260509055814 31 257 0.0 2.0 0.00 0.00 0.00 79 1009.7
20260509055311 31 257 1.0 3.0 0.00 0.00 0.00 79 1009.8
20260509054811 31 257 1.0 3.0 0.00 0.00 0.00 79 1009.7
20260509054310 31 257 1.0 3.0 0.00 0.00 0.00 79 1009.8
20260509053808 30 257 1.0 3.0 0.00 0.00 0.00 79 1009.8
20260509053527 30 257 1.0 2.0 0.00 0.00 0.00 79 1009.7
20260509053031 31 257 1.0 2.0 0.00 0.00 0.00 78 1009.8
20260509052301 31 257 1.0 2.0 0.00 0.00 0.00 78 1009.8
20260509051801 31 257 2.0 2.0 0.00 0.00 0.00 78 1009.7
20260509051521 31 257 1.0 2.0 0.00 0.00 0.00 77 1009.7
20260509051032 31 257 1.0 2.0 0.00 0.00 0.00 77 1009.7
20260509050302 32 257 0.0 2.0 0.00 0.00 0.00 76 1009.6
20260509050029 32 257 1.0 2.0 0.00 0.00 0.00 76 1009.6
20260509045300 31 257 1.0 2.0 0.00 0.00 0.00 76 1009.6
20260509044757 31 257 1.0 2.0 0.00 0.00 0.00 76 1009.6
20260509044255 32 257 1.0 2.0 0.00 0.00 0.00 76 1009.6
20260509043754 32 257 0.0 2.0 0.00 0.00 0.00 75 1009.6
20260509043249 32 257 0.0 2.0 0.00 0.00 0.00 75 1009.5
20260509043010 32 257 1.0 2.0 0.00 0.00 0.00 75 1009.4
20260509042507 32 257 1.0 2.0 0.00 0.00 0.00 75 1009.4
20260509041743 32 257 1.0 2.0 0.00 0.00 0.00 75 1009.4
20260509041244 32 257 1.0 2.0 0.00 0.00 0.00 75 1009.4
20260509040744 33 257 1.0 2.0 0.00 0.00 0.00 74 1009.5
20260509040243 33 257 1.0 2.0 0.00 0.00 0.00 72 1009.4
20260509035742 34 257 1.0 2.0 0.00 0.00 0.00 73 1009.4
20260509035242 33 257 1.0 2.0 0.00 0.00 0.00 71 1009.4
20260509034743 33 257 1.0 3.0 0.00 0.00 0.00 72 1009.3
20260509034240 33 257 2.0 3.0 0.00 0.00 0.00 72 1009.4
20260509033738 33 257 2.0 3.0 0.00 0.00 0.00 72 1009.5
20260509033236 33 257 2.0 3.0 0.00 0.00 0.00 72 1009.5
20260509032734 33 257 2.0 3.0 0.00 0.00 0.00 71 1009.5
20260509032234 34 257 1.0 3.0 0.00 0.00 0.00 71 1009.4
20260509031734 35 257 2.0 4.0 0.00 0.00 0.00 70 1009.4
20260509031234 35 257 3.0 6.0 0.00 0.00 0.00 68 1009.4
20260509030732 35 257 3.0 7.0 0.00 0.00 0.00 68 1009.3
20260509030235 35 273 3.0 7.0 0.00 0.00 0.00 70 1009.4
20260509025731 34 272 2.0 7.0 0.00 0.00 0.00 73 1009.4
20260509025230 33 243 2.0 5.0 0.00 0.00 0.00 74 1009.4
20260509024729 33 267 2.0 4.0 0.00 0.00 0.00 74 1009.3
20260509024229 33 264 2.0 4.0 0.00 0.00 0.00 73 1009.3
20260509023953 33 239 2.0 4.0 0.00 0.00 0.00 72 1009.3
20260509023225 34 239 2.0 4.0 0.00 0.00 0.00 72 1009.3
20260509022726 34 238 1.0 3.0 0.00 0.00 0.00 71 1009.3
20260509021726 34 269 0.0 2.0 0.00 0.00 0.00 71 1009.2
20260509021226 35 269 1.0 1.0 0.00 0.00 0.00 70 1009.2
20260509020725 34 269 0.0 1.0 0.00 0.00 0.00 71 1009.1
20260509020226 35 269 0.0 1.0 0.00 0.00 0.00 70 1009.1
20260509015726 35 269 0.0 0.0 0.00 0.00 0.00 70 1009.0
20260509015227 35 269 0.0 0.0 0.00 0.00 0.00 71 1009.0
20260509014951 35 269 0.0 2.0 0.00 0.00 0.00 69 1008.9
20260509014226 35 269 1.0 2.0 0.00 0.00 0.00 70 1008.9
20260509013725 35 269 0.0 2.0 0.00 0.00 0.00 69 1008.9
20260509013226 35 269 0.0 2.0 0.00 0.00 0.00 69 1008.8
20260509012723 35 269 0.0 2.0 0.00 0.00 0.00 68 1008.7
20260509012223 35 269 1.0 3.0 0.00 0.00 0.00 69 1008.6
20260509011723 36 269 1.0 3.0 0.00 0.00 0.00 67 1008.6
20260509011224 36 269 1.0 3.0 0.00 0.00 0.00 66 1008.5
20260509010724 36 269 1.0 3.0 0.00 0.00 0.00 67 1008.4
20260509010221 36 269 1.0 3.0 0.00 0.00 0.00 67 1008.2
20260509005722 37 269 1.0 3.0 0.00 0.00 0.00 65 1008.2
20260509005221 37 269 1.0 3.0 0.00 0.00 0.00 65 1008.1
20260509004722 37 268 1.0 3.0 0.00 0.00 0.00 65 1008.0
20260509004442 37 268 1.0 2.0 0.00 0.00 0.00 66 1007.9
20260509003722 37 268 1.0 2.0 0.00 0.00 0.00 64 1007.9
20260509003225 38 268 0.0 2.0 0.00 0.00 0.00 62 1007.8
20260509002722 38 268 0.0 2.0 0.00 0.00 0.00 62 1007.8
20260509002222 39 268 0.0 2.0 0.00 0.00 0.00 60 1007.8
20260509001222 40 268 1.0 3.0 0.00 0.00 0.00 59 1007.7
20260509000721 40 268 2.0 3.0 0.00 0.00 0.00 58 1007.6
20260509000221 41 267 2.0 4.0 0.00 0.00 0.00 56 1007.7
20260508235945 42 275 2.0 7.0 0.00 0.00 0.00 53 1007.7
20260508235445 42 279 3.0 8.0 0.00 0.00 0.00 55 1007.6
20260508234722 43 265 3.0 9.0 0.00 0.00 0.00 50 1007.6
20260508234217 44 255 3.0 9.0 0.00 0.00 0.00 51 1007.6
20260508233717 44 250 3.0 7.0 0.00 0.00 0.00 50 1007.5
20260508233217 44 311 4.0 16.0 0.00 0.00 0.00 52 1007.5
20260508232937 45 250 5.0 16.0 0.00 0.00 0.00 48 1007.5
20260508232218 46 256 6.0 14.0 0.00 0.00 0.00 46 1007.4
20260508231718 46 321 6.0 14.0 0.00 0.00 0.00 45 1007.5
20260508231217 46 284 4.0 12.0 0.00 0.00 0.00 45 1007.4
20260508230716 46 248 3.0 8.0 0.00 0.00 0.00 46 1007.4
20260508230216 46 263 3.0 9.0 0.00 0.00 0.00 47 1007.4
20260508225713 46 256 4.0 9.0 0.00 0.00 0.00 45 1007.4
20260508225212 46 238 5.0 10.0 0.00 0.00 0.00 45 1007.4
20260508224712 46 257 5.0 12.0 0.00 0.00 0.00 45 1007.4
20260508224212 47 240 5.0 12.0 0.00 0.00 0.00 46 1007.3
20260508223933 47 243 5.0 13.0 0.00 0.00 0.00 45 1007.2
20260508223211 47 273 4.0 13.0 0.00 0.00 0.00 47 1007.1
20260508222712 47 271 3.0 10.0 0.00 0.00 0.00 46 1007.3
20260508222435 47 290 5.0 10.0 0.00 0.00 0.00 44 1007.2
20260508221707 47 304 6.0 13.0 0.00 0.00 0.00 45 1007.2
20260508221208 47 226 6.0 13.0 0.00 0.00 0.00 43 1007.1
20260508220707 47 235 5.0 11.0 0.00 0.00 0.00 45 1007.1
20260508220207 47 237 5.0 11.0 0.00 0.00 0.00 44 1007.1
20260508215707 47 252 5.0 12.0 0.00 0.00 0.00 43 1007.1
20260508215205 47 279 6.0 12.0 0.00 0.00 0.00 42 1007.1
20260508214705 47 296 5.0 12.0 0.00 0.00 0.00 42 1007.1
20260508214159 47 273 4.0 12.0 0.00 0.00 0.00 44 1007.3
20260508213653 47 275 4.0 12.0 0.00 0.00 0.00 43 1007.2
20260508213412 47 231 4.0 10.0 0.00 0.00 0.00 42 1007.1
20260508212652 47 221 3.0 10.0 0.00 0.00 0.00 45 1007.1
20260508212151 47 269 4.0 12.0 0.00 0.00 0.00 45 1007.0
20260508211651 47 255 4.0 12.0 0.00 0.00 0.00 42 1006.9
20260508211151 47 236 4.0 9.0 0.00 0.00 0.00 42 1006.9
20260508210651 47 263 5.0 12.0 0.00 0.00 0.00 43 1006.9
20260508210149 48 297 4.0 12.0 0.00 0.00 0.00 42 1006.9
20260508205650 48 319 3.0 8.0 0.00 0.00 0.00 43 1006.8
20260508205149 49 273 3.0 10.0 0.00 0.00 0.00 40 1006.8
20260508204649 49 254 6.0 15.0 0.00 0.00 0.00 39 1006.8
20260508204147 50 237 7.0 15.0 0.00 0.00 0.00 39 1006.7
20260508203913 50 184 5.0 14.0 0.00 0.00 0.00 41 1006.7
20260508203408 49 325 4.0 13.0 0.00 0.00 0.00 39 1006.7
20260508202642 49 252 4.0 13.0 0.00 0.00 0.00 40 1006.7
20260508202132 48 240 6.0 19.0 0.00 0.00 0.00 40 1006.6
20260508201843 48 227 8.0 19.0 0.00 0.00 0.00 42 1006.6
20260508201120 48 209 7.0 15.0 0.00 0.00 0.00 42 1006.6
20260508200610 48 288 8.0 19.0 0.00 0.00 0.00 42 1006.8
20260508200332 47 248 11.0 21.0 0.00 0.00 0.00 40 1006.8
20260508195558 48 256 9.0 21.0 0.00 0.00 0.00 39 1006.8
20260508195048 48 242 7.0 16.0 0.00 0.00 0.00 39 1006.8
20260508194543 48 288 6.0 12.0 0.00 0.00 0.00 39 1006.8
20260508194036 48 296 7.0 14.0 0.00 0.00 0.00 41 1006.8
20260508193526 48 253 6.0 14.0 0.00 0.00 0.00 42 1006.8
20260508193020 48 229 5.0 13.0 0.00 0.00 0.00 40 1006.7
20260508192514 48 329 6.0 13.0 0.00 0.00 0.00 41 1006.8
20260508192232 48 231 6.0 15.0 0.00 0.00 0.00 40 1006.8
20260508191458 48 280 8.0 15.0 0.00 0.00 0.00 42 1007.0
20260508190952 48 264 10.0 17.0 0.00 0.00 0.00 40 1006.9
20260508190704 48 246 10.0 23.0 0.00 0.00 0.00 40 1006.9
20260508185936 48 231 8.0 23.0 0.00 0.00 0.00 41 1006.8
20260508185429 49 300 6.0 13.0 0.00 0.00 0.00 40 1006.8
20260508185142 49 227 6.0 13.0 0.00 0.00 0.00 39 1006.7
20260508184418 50 292 7.0 13.0 0.00 0.00 0.00 36 1006.8
20260508183917 50 275 7.0 18.0 0.00 0.00 0.00 39 1006.8
20260508183415 49 244 7.0 18.0 0.00 0.00 0.00 38 1006.8
20260508183140 49 243 7.0 16.0 0.00 0.00 0.00 39 1006.8
20260508182637 49 242 7.0 16.0 0.00 0.00 0.00 42 1006.8
20260508181915 50 261 7.0 17.0 0.00 0.00 0.00 42 1006.9
20260508181415 48 233 6.0 17.0 0.00 0.00 0.00 40 1007.0
20260508181136 48 244 5.0 13.0 0.00 0.00 0.00 41 1007.0
20260508180415 47 234 5.0 11.0 0.00 0.00 0.00 42 1007.0
20260508180142 47 298 5.0 14.0 0.00 0.00 0.00 42 1006.9
20260508175642 47 279 6.0 16.0 0.00 0.00 0.00 42 1006.9
20260508174915 47 221 7.0 16.0 0.00 0.00 0.00 42 1007.0
20260508174416 48 251 7.0 15.0 0.00 0.00 0.00 41 1006.9
20260508173915 48 284 8.0 14.0 0.00 0.00 0.00 42 1006.9
20260508173415 47 313 7.0 14.0 0.00 0.00 0.00 41 1007.0
20260508172908 48 250 6.0 13.0 0.00 0.00 0.00 44 1007.0
20260508172403 47 17 7.0 18.0 0.00 0.00 0.00 42 1007.0
20260508171347 48 233 8.0 16.0 0.00 0.00 0.00 40 1007.2
20260508170846 47 246 6.0 16.0 0.00 0.00 0.00 42 1007.3
20260508170611 47 242 5.0 14.0 0.00 0.00 0.00 41 1007.2
20260508165848 47 246 7.0 14.0 0.00 0.00 0.00 42 1007.2
20260508165344 46 315 7.0 16.0 0.00 0.00 0.00 42 1007.2
20260508164845 46 208 6.0 16.0 0.00 0.00 0.00 42 1007.3
20260508164345 45 236 6.0 13.0 0.00 0.00 0.00 42 1007.2
20260508163844 45 258 6.0 13.0 0.00 0.00 0.00 45 1007.3
20260508163346 45 311 6.0 16.0 0.00 0.00 0.00 44 1007.3
20260508162845 45 226 7.0 16.0 0.00 0.00 0.00 44 1007.3
20260508162345 45 264 7.0 17.0 0.00 0.00 0.00 43 1007.3
20260508161848 45 242 6.0 17.0 0.00 0.00 0.00 44 1007.3
20260508161345 45 244 8.0 17.0 0.00 0.00 0.00 43 1007.1
20260508161110 46 205 10.0 19.0 0.00 0.00 0.00 44 1007.1
20260508160345 47 234 9.0 19.0 0.00 0.00 0.00 40 1007.2
20260508155839 49 228 6.0 17.0 0.00 0.00 0.00 42 1007.1
20260508155337 47 247 6.0 13.0 0.00 0.00 0.00 47 1007.2
20260508154837 45 247 5.0 13.0 0.00 0.00 0.00 44 1007.2
20260508154337 46 237 5.0 14.0 0.00 0.00 0.00 46 1007.1
20260508154104 45 218 8.0 17.0 0.00 0.00 0.00 44 1007.2
20260508153336 45 298 8.0 17.0 0.00 0.00 0.00 46 1007.3
20260508152835 46 304 6.0 17.0 0.00 0.00 0.00 44 1007.1
20260508152559 46 236 6.0 11.0 0.00 0.00 0.00 43 1007.0
20260508152057 47 213 6.0 15.0 0.00 0.00 0.00 42 1007.0
20260508151338 46 290 7.0 15.0 0.00 0.00 0.00 48 1007.0
20260508150837 45 236 6.0 14.0 0.00 0.00 0.00 43 1006.9
20260508150337 46 257 6.0 16.0 0.00 0.00 0.00 43 1007.0
20260508150058 46 289 8.0 17.0 0.00 0.00 0.00 47 1006.9
20260508145336 45 253 8.0 17.0 0.00 0.00 0.00 46 1006.9
20260508144834 46 252 5.0 14.0 0.00 0.00 0.00 46 1006.9
20260508144329 45 325 5.0 12.0 0.00 0.00 0.00 46 1006.9
20260508143828 45 327 7.0 19.0 0.00 0.00 0.00 44 1006.8
20260508143549 47 288 6.0 19.0 0.00 0.00 0.00 46 1006.8
20260508142829 46 198 4.0 11.0 0.00 0.00 0.00 45 1006.8
20260508142551 45 299 4.0 13.0 0.00 0.00 0.00 48 1006.8
20260508141828 44 239 5.0 17.0 0.00 0.00 0.00 47 1006.8
20260508141606 45 242 6.0 17.0 0.00 0.00 0.00 47 1006.9
20260508140829 46 297 7.0 19.0 0.00 0.00 0.00 45 1006.9
20260508140328 46 342 7.0 19.0 0.00 0.00 0.00 46 1007.0
20260508140049 46 242 7.0 18.0 0.00 0.00 0.00 48 1007.0
20260508135329 44 286 8.0 18.0 0.00 0.00 0.00 53 1007.0
20260508134828 42 215 8.0 18.0 0.00 0.00 0.00 51 1007.1
20260508134328 44 238 5.0 15.0 0.00 0.00 0.00 49 1007.1
20260508133829 45 217 4.0 15.0 0.00 0.00 0.00 51 1007.1
20260508133329 44 309 5.0 15.0 0.00 0.00 0.00 49 1007.0
20260508132828 43 313 8.0 24.0 0.00 0.00 0.00 54 1007.1
20260508132555 43 278 8.0 24.0 0.00 0.00 0.00 52 1007.2
20260508131828 44 242 6.0 18.0 0.00 0.00 0.00 58 1007.1
20260508131329 43 334 5.0 18.0 0.00 0.00 0.00 58 1007.1
20260508131059 43 236 5.0 14.0 0.00 0.00 0.00 60 1007.3
20260508130329 42 333 6.0 17.0 0.00 0.00 0.00 61 1007.3
20260508125828 42 261 7.0 17.0 0.00 0.00 0.00 60 1007.2
20260508125328 42 300 7.0 19.0 0.00 0.00 0.00 66 1007.3
20260508124829 41 253 7.0 19.0 0.00 0.00 0.00 65 1007.2
20260508124329 41 271 8.0 19.0 0.00 0.00 0.00 67 1007.3
20260508123828 40 238 7.0 19.0 0.00 0.00 0.00 67 1007.3
20260508123328 40 243 7.0 14.0 0.00 0.00 0.00 67 1007.3
20260508122829 40 218 6.0 14.0 0.00 0.00 0.00 66 1007.3
20260508122328 40 253 6.0 12.0 0.00 0.00 0.00 66 1007.3
20260508121828 39 210 6.0 12.0 0.00 0.00 0.00 67 1007.3
20260508121329 39 279 4.0 10.0 0.00 0.00 0.00 68 1007.3
20260508120828 39 247 3.0 8.0 0.00 0.00 0.00 70 1007.3
20260508120329 38 201 4.0 10.0 0.00 0.00 0.00 73 1007.3
20260508115830 38 263 4.0 10.0 0.00 0.00 0.00 71 1007.3
20260508115554 37 261 5.0 10.0 0.00 0.00 0.00 73 1007.3
20260508114823 37 215 5.0 10.0 0.00 0.00 0.00 72 1007.4
20260508114317 37 235 4.0 9.0 0.00 0.00 0.00 75 1007.4
20260508113807 36 229 4.0 9.0 0.00 0.00 0.00 77 1007.3
20260508113304 36 236 3.0 7.0 0.00 0.00 0.00 77 1007.3
20260508112755 35 266 3.0 7.0 0.00 0.00 0.00 76 1007.4
20260508112245 35 232 2.0 5.0 0.00 0.00 0.00 77 1007.4
20260508111739 35 230 2.0 4.0 0.00 0.00 0.00 78 1007.2
20260508111232 34 252 2.0 4.0 0.00 0.00 0.00 81 1007.2
20260508110723 33 251 2.0 4.0 0.00 0.00 0.00 83 1007.2
20260508110216 33 250 2.0 5.0 0.00 0.00 0.00 84 1007.0
20260508105711 32 254 2.0 5.0 0.00 0.00 0.00 86 1007.0
20260508105201 31 250 1.0 3.0 0.00 0.00 0.00 87 1007.0
20260508104655 31 250 1.0 3.0 0.00 0.00 0.00 88 1006.9
20260508104149 31 250 2.0 3.0 0.00 0.00 0.00 88 1006.9
20260508103902 31 250 2.0 5.0 0.00 0.00 0.00 89 1006.9
20260508103349 30 250 3.0 6.0 0.00 0.00 0.00 90 1006.9
20260508102627 30 259 2.0 6.0 0.00 0.00 0.00 91 1006.8
20260508102117 29 261 2.0 4.0 0.00 0.00 0.00 91 1006.8
20260508101610 29 264 2.0 6.0 0.00 0.00 0.00 91 1006.7
20260508101105 29 260 2.0 6.0 0.00 0.00 0.00 91 1006.7
20260508100555 29 259 2.0 4.0 0.00 0.00 0.00 90 1006.7
20260508100049 29 257 2.0 4.0 0.00 0.00 0.00 90 1006.6
20260508095543 29 256 3.0 4.0 0.00 0.00 0.00 90 1006.6
20260508095033 29 254 3.0 4.0 0.00 0.00 0.00 90 1006.5
20260508094527 29 261 3.0 6.0 0.00 0.00 0.00 90 1006.4
20260508094022 29 261 2.0 6.0 0.00 0.00 0.00 90 1006.4